Burlington, NC

9:14 PM EDT on July 27, 2017 (GMT -0400)
Burlington-Alamance Regional

Weather History for KBUY - April, 2013

Change the Weather History Date:

Monday, April 29, 2013

  Actual Average Record
Temperature  
Mean Temperature 63 °F -  
Max Temperature 71 °F 74 °F 90 °F (1957)
Min Temperature 55 °F 48 °F 37 °F (1967)
Degree Days  
Heating Degree Days 2    
Growing Degree Days 13 (Base 50)    
Moisture  
Dew Point 57 °F    
Average Humidity 85    
Maximum Humidity 100    
Minimum Humidity 64    
Precipitation  
Precipitation 0.55 in - - ()
Sea Level Pressure  
Sea Level Pressure 30.02 in    
Wind  
Wind Speed 2 mph (SSE)    
Max Wind Speed 6 mph    
Max Gust Speed -    
Visibility 8 miles    
Events Rain    
Averages and records for this station are not official NWS values.
T = Trace of Precipitation, MM = Missing Value Source: NWS Daily Summary

Daily Weather History Graph

Daily Weather History Graph

Search for Another Location

Airport or City:

Trip Planner

Search our weather history database for the weather conditions in past years. The results will help you decide how hot, cold, wet, or windy it might be!

Date:

Astronomy

Apr. 29, 2013 Rise Set
Actual Time 6:27 AM EDT 8:03 PM EDT
Civil Twilight 5:59 AM EDT 8:31 PM EDT
Nautical Twilight 5:26 AM EDT 9:04 PM EDT
Astronomical Twilight 4:52 AM EDT 9:38 PM EDT
Moon No Moon Rise 9:49 AM EDT (4/29)
Length of Visible Light 14h 31m
Length of Day
13h 36m
Waning Gibbous, 80% of the Moon is Illuminated
Apr 29
Waning Gibbous
May 2
Last Quarter
May 9
New
May 18
First Quarter
May 25
Full

Hourly Weather History & Observations

Time (EDT) Temp. Dew Point Humidity Pressure Visibility Wind Dir Wind Speed Gust Speed Precip Events Conditions
12:06 AM 55.4 °F 53.6 °F 94% 30.07 in 5.0 mi ESE 4.6 mph - 0.01 in Rain Light Rain
12:54 AM 55.9 °F 55.0 °F 97% 30.06 in 4.0 mi ESE 3.5 mph - 0.06 in Rain Light Rain
1:54 AM 55.9 °F 55.0 °F 97% 30.05 in 5.0 mi SE 4.6 mph - 0.05 in Rain Light Rain
2:54 AM 57.0 °F 55.9 °F 96% 30.03 in 5.0 mi Calm Calm - 0.04 in Rain Light Rain
3:45 AM 57.2 °F 55.4 °F 94% 30.03 in 2.0 mi Calm Calm - 0.10 in Rain Heavy Rain
3:54 AM 57.0 °F 55.9 °F 96% 30.03 in 2.0 mi Calm Calm - 0.15 in Rain Heavy Rain
4:01 AM 57.2 °F 55.4 °F 94% 30.03 in 1.8 mi Calm Calm - 0.04 in Rain Heavy Rain
4:09 AM 57.2 °F 55.4 °F 94% 30.03 in 1.5 mi Calm Calm - 0.10 in Rain Heavy Rain
4:25 AM 57.2 °F 55.4 °F 94% 30.03 in 2.5 mi Calm Calm - 0.15 in Rain Rain
4:42 AM 57.2 °F 55.4 °F 94% 30.02 in 4.0 mi Calm Calm - 0.19 in Rain Light Rain
4:54 AM 57.0 °F 55.9 °F 96% 30.01 in 4.0 mi ESE 3.5 mph - 0.20 in Rain Light Rain
5:32 AM 57.2 °F 55.4 °F 94% 30.02 in 8.0 mi Calm Calm - 0.01 in Rain Light Rain
5:54 AM 57.0 °F 55.9 °F 96% 30.02 in 7.0 mi Calm Calm - 0.02 in Rain Light Rain
6:32 AM 55.4 °F 55.4 °F 100% 30.02 in 5.0 mi Calm Calm - 0.01 in Rain Light Rain
6:47 AM 57.2 °F 55.4 °F 94% 30.03 in 7.0 mi Calm Calm - 0.01 in Rain Light Rain
6:54 AM 57.0 °F 55.9 °F 96% 30.04 in 8.0 mi Calm Calm - 0.01 in Rain Light Rain
7:08 AM 57.2 °F 55.4 °F 94% 30.04 in 5.0 mi Calm Calm - 0.01 in Rain Light Rain
7:21 AM 57.2 °F 55.4 °F 94% 30.05 in 7.0 mi Calm Calm - 0.01 in Rain Light Rain
7:50 AM 57.2 °F 55.4 °F 94% 30.05 in 6.0 mi Calm Calm - 0.02 in Rain Light Rain
7:54 AM 57.9 °F 55.9 °F 93% 30.04 in 6.0 mi Calm Calm - 0.02 in Rain Light Rain
8:03 AM 57.2 °F 55.4 °F 94% 30.04 in 7.0 mi Calm Calm - 0.00 in Rain Light Rain
8:54 AM 57.9 °F 57.0 °F 97% 30.04 in 10.0 mi Calm Calm - 0.00 in   Overcast
9:50 AM 60.8 °F 57.2 °F 88% 30.04 in 10.0 mi Calm Calm - N/A   Overcast
9:54 AM 61.0 °F 57.9 °F 90% 30.04 in 10.0 mi Calm Calm - N/A   Overcast
10:41 AM 60.8 °F 57.2 °F 88% 30.05 in 10.0 mi Calm Calm - N/A   Overcast
10:54 AM 62.1 °F 57.9 °F 86% 30.04 in 10.0 mi NW 3.5 mph - N/A   Overcast
11:29 AM 64.4 °F 59.0 °F 83% 30.05 in 10.0 mi Calm Calm - N/A   Mostly Cloudy
11:38 AM 64.4 °F 57.2 °F 77% 30.05 in 10.0 mi Calm Calm - N/A   Mostly Cloudy
11:54 AM 64.0 °F 57.9 °F 80% 30.04 in 10.0 mi Calm Calm - N/A   Mostly Cloudy
12:54 PM 64.9 °F 59.0 °F 81% 30.04 in 10.0 mi Calm Calm - N/A   Overcast
1:20 PM 64.4 °F 57.2 °F 77% 30.04 in 10.0 mi SW 3.5 mph - N/A   Overcast
1:54 PM 64.9 °F 57.9 °F 78% 30.03 in 10.0 mi SW 3.5 mph - N/A   Overcast
2:28 PM 66.2 °F 59.0 °F 78% 30.02 in 10.0 mi Variable 3.5 mph - N/A   Overcast
2:45 PM 66.2 °F 59.0 °F 78% 30.02 in 10.0 mi Variable 3.5 mph - N/A   Overcast
2:54 PM 66.9 °F 59.0 °F 76% 30.01 in 10.0 mi South 3.5 mph - N/A   Overcast
3:16 PM 66.2 °F 59.0 °F 78% 30.01 in 10.0 mi South 4.6 mph - N/A   Mostly Cloudy
3:54 PM 69.1 °F 59.0 °F 70% 29.98 in 10.0 mi Variable 5.8 mph - N/A   Overcast
4:10 PM 69.8 °F 57.2 °F 64% 29.98 in 10.0 mi Calm Calm - N/A   Mostly Cloudy
4:19 PM 69.8 °F 57.2 °F 64% 29.98 in 10.0 mi SSW 3.5 mph - N/A   Mostly Cloudy
4:27 PM 69.8 °F 57.2 °F 64% 29.98 in 10.0 mi South 4.6 mph - N/A   Mostly Cloudy
4:54 PM 69.1 °F 57.9 °F 68% 29.96 in 10.0 mi Calm Calm - N/A   Mostly Cloudy
5:54 PM 69.1 °F 57.9 °F 68% 29.96 in 10.0 mi Calm Calm - N/A   Clear
6:41 PM 71.6 °F 59.0 °F 64% 29.97 in 10.0 mi Calm Calm - N/A   Mostly Cloudy
6:54 PM 69.1 °F 59.0 °F 70% 29.97 in 10.0 mi ESE 4.6 mph - N/A   Overcast
7:03 PM 69.8 °F 57.2 °F 64% 29.98 in 10.0 mi ESE 3.5 mph - N/A   Overcast
7:54 PM 66.0 °F 60.1 °F 81% 29.99 in 10.0 mi North 3.5 mph - N/A   Clear
8:54 PM 63.0 °F 59.0 °F 87% 30.01 in 10.0 mi Calm Calm - N/A   Clear
9:54 PM 61.0 °F 59.0 °F 93% 30.02 in 10.0 mi Calm Calm - N/A   Clear
10:54 PM 60.1 °F 57.9 °F 93% 30.02 in 10.0 mi Calm Calm - N/A   Clear
11:54 PM 59.0 °F 57.0 °F 93% 30.02 in 10.0 mi Calm Calm - N/A   Clear